Flag for Germany Weather past 2 weeks in Hoyerswerda, Saxony, Germany

Now
54 °F

Overcast.


Feels Like: 54 °F
Forecast: 49 / 72 °F
Wind: 1 mph from Southwest

Location: Cottbus

Current Time: Sep 3, 2015 at 12:12:25 AM

Latest Report: Sep 2, 2015 at 11:00 PM


Visibility: 19 mi

Pressure: 30.01 "Hg

Humidity: 95%

Dew point: 52 °F

Location of HoyerswerdaLocation

Historic Weather in Hoyerswerda — Graph

°F

Hoyerswerda temperature yesterday

Maximum temperature yesterday: 68 °F (at 5:00 PM)
Minimum temperature yesterday: 54 °F (at 11:00 PM)
Average temperature yesterday: 61 °F

Past Weeks' High & Low Weather Summary

 TemperatureHumidityPressure
High98 °F (Aug 31, 4:00 PM)100% (Sep 1, 7:00 PM)30.31 "Hg (Sep 1, 7:00 PM)
Low47 °F (Aug 22, 6:00 AM)22% (Aug 22, 3:00 PM)29.67 "Hg (Sep 1, 5:00 PM)
Average68 °F64%30.02 "Hg
* Reported Aug 18 11:00 PM — Sep 2 11:00 PM, Hoyerswerda, Weather by CustomWeather, © 2015

Note: Actual official high and low records may vary slightly from our data, if they occured in-between our weather recording intervals... More about our weather records

Advertising

Hoyerswerda weather history for previous 24 hours

 ConditionsComfort  
Time TempWeatherWind HumidityBarometerVisibility
11:00 PM
Wed, Sep 2
54 °FOvercast.1 mph95%30.01 "Hg19 mi
10:00 PM55 °FOvercast.1 mph94%30.01 "Hg17 mi
9:00 PM57 °FOvercast.No wind89%30.01 "Hg28 mi
8:00 PM61 °FOvercast.1 mph73%30.00 "Hg31 mi
7:00 PM67 °FOvercast.2 mph53%29.99 "Hg43 mi
6:00 PM67 °FOvercast.2 mph52%29.99 "Hg43 mi
5:00 PM68 °FOvercast.2 mph47%29.99 "Hg43 mi
4:00 PM68 °FPartly sunny.3 mph49%29.99 "Hg43 mi
3:00 PM68 °FOvercast.2 mph44%30.00 "Hg28 mi
2:00 PM68 °FScattered clouds.3 mph50%30.01 "Hg43 mi
1:00 PM66 °FPartly sunny.3 mph54%30.02 "Hg28 mi
12:00 PM65 °FPartly sunny.3 mph62%30.03 "Hg43 mi
11:00 AM62 °FPartly sunny.5 mph70%30.03 "Hg31 mi
10:00 AM61 °FPassing clouds.3 mph79%30.03 "Hg16 mi
9:00 AM58 °FLow clouds.5 mph89%30.02 "Hg7 mi
8:00 AM57 °FOvercast.3 mph92%30.01 "Hg8 mi
7:00 AM56 °FOvercast.3 mph95%30.00 "Hg10 mi
6:00 AM57 °FOvercast.2 mph94%29.98 "Hg16 mi
5:00 AM57 °FOvercast.3 mph93%29.98 "Hg16 mi
4:00 AM59 °FOvercast.3 mph93%29.97 "Hg16 mi
3:00 AM59 °FOvercast.3 mph96%29.95 "Hg19 mi
2:00 AM60 °FLight rain. Overcast.3 mph92%29.92 "Hg13 mi
1:00 AM61 °FPassing clouds.3 mph94%29.93 "Hg28 mi
Weather by CustomWeather, © 2015

See weather overviewHow to use our weather pages